Location: Elbart
(49.6135°N, 11.9134°E)
Time: 08:20:09
(UTC+00:00)

Cosmos 1825 - Pass Details

Date: 09 April 2020
Orbit: 502 x 509 km, 82.5° (Epoch: 23 May)

Event Time Altitude Azimuth Distance (km) Brightness Sun altitude
Rises 19:59:59 0° 357° (N) 2,630 6.4 -18.7°
Reaches altitude 10° 20:02:17 10° 7° (N) 1,738 5.3 -18.9°
Enters shadow 20:05:34 34° 66° (ENE) 864 3.1 -19.4°
